Regional Weather Roundup
Issued by NWS Northern Indiana

Home | Current Version | Previous Version | Graphics & Text | Print | Product List | Glossary On
Versions: 1 2 3 4 5 6 7 8 9 10 11 12 13 14 15 16 17 18 19 20 21 22 23 24 25 26 27 28 29 30 31 32 33 34 35 36 37 38 39 40 41 42 43 44 45 46 47 48 49 50
113
ASUS43 KIWX 060400
RWRIWX

KIWX WEATHER ROUNDUP
NATIONAL WEATHER SERVICE NORTHERN INDIANA
1100 PM EST FRI FEB 05 2016

NOTE: "FAIR" INDICATES FEW OR NO CLOUDS BELOW 12,000 FEET WITH NO
SIGNIFICANT WEATHER AND/OR OBSTRUCTIONS TO VISIBILITY.

* THESE STATIONS ARE NOT UNDER NWS QUALITY CONTROL. THEY ALSO MAY NOT
  REPORT WEATHER SUCH AS PRECIPITATION OR FOG.

INZ001>027-060500-
NORTHERN INDIANA

CITY           SKY/WX    TMP DP  RH WIND       PRES   REMARKS
GARY*          PTCLDY    28  23  80 SW3       30.34F
SOUTH BEND     MOCLDY    25  21  85 SW5       30.33F WCI  19
GOSHEN         PTCLDY    25  21  85 W6        30.32S WCI  18
ANGOLA*        MOCLDY    28  25  86 W3        30.30R
FORT WAYNE     CLOUDY    31  26  82 W9        30.33S WCI  23
PERU/GRISSOM   PTCLDY    26  24  91 W7        30.32S WCI  18

$$
INZ028>050-060500-
CENTRAL INDIANA

CITY           SKY/WX    TMP DP  RH WIND       PRES   REMARKS
LAFAYETTE      MOCLDY    26  21  81 CALM      30.36F
KOKOMO*        CLOUDY    27  21  80 NW8       30.34S WCI  18
MUNCIE*        CLOUDY    26  21  81 W5        30.33R WCI  20
INDIANAPOLIS   CLOUDY    25  20  81 W5        30.34R WCI  19

$$
MIZ043>046-050>051-056>058-064>065-071>073-077>080-060500-
SOUTHWEST LOWER MICHIGAN

CITY           SKY/WX    TMP DP  RH WIND       PRES   REMARKS
BATTLE CREEK   CLOUDY    25  19  78 W5        30.29S WCI  19
BENTON HARBOR  CLEAR     28  22  78 S5        30.32F WCI  23
COLDWATER*     PTCLDY    25  21  85 W3        30.30R
HILLSDALE*     CLOUDY    27  25  89 W6        30.27R WCI  21
HOLLAND        CLOUDY    26  21  81 CALM      30.31S
GRAND RAPIDS   CLOUDY    27  18  69 W3        30.29S
KALAMAZOO      CLOUDY    27  20  75 W5        30.30S WCI  22
STURGIS*       CLEAR     25  21  85 CALM      30.30S
THREE RIVERS*  FAIR      27  22  83 SW3       30.31S

$$
OHZ001>008-015>018-024>025-060500-
NORTHWEST OHIO

CITY           SKY/WX    TMP DP  RH WIND       PRES   REMARKS
DEFIANCE       MOCLDY    31  24  75 W5        30.31R WCI  26
FINDLAY        PTCLDY    29  23  78 SW6       30.29F WCI  23
TOLEDO EXPRESS PTCLDY    29  22  75 SW6       30.28F WCI  23
TOLEDO METCALF PTCLDY    31  22  69 SW7       30.30F WCI  24
LIMA           PTCLDY    28  21  75 S5        30.29F WCI  23

$$
AND FOR LAKE MICHIGAN COASTAL AND OPEN LAKE BUOY OBSERVATIONS

STATION/POSITION TEMP    WIND        PRES    VSBY  WAVE
                 AIR SEA DIR/SP/G                  HT/PER
                 (F)     (DEG/KT/KT) (MB)    (MI)  (FT/S)
CALUMET HARBOR    29     220/  4/  8 1026.5F
MICHIGAN CITY     29     180/  5/  6   N/A
BURNS HARBOR      30     230/  7/  8 1028.1S
SAINT JOSEPH      31     210/  5/  7 1027.4S

$$
&&




USA.gov is the U.S. government's official web portal to all federal, state and local government web resources and services.